Printer-friendly version

IAU Minor Planet Center

Minor Planet Center

MPEC 2006-T29 : 2006 TF1

The following Minor Planet Electronic Circular may be linked-to from your own Web pages, but must not otherwise be redistributed electronically.


Read MPEC 2006-T28 Read MPEC 2006-T30


M.P.E.C. 2006-T29                                Issued 2006 Oct. 4, 15:35 UT

     The Minor Planet Electronic Circulars contain information on unusual
         minor planets and routine data on comets.  They are published
   on behalf of Commission 20 of the International Astronomical Union by the
          Minor Planet Center, Smithsonian Astrophysical Observatory,
                          Cambridge, MA 02138, U.S.A.

             Prepared using the Tamkin Foundation Computer Network

                              MPC@CFA.HARVARD.EDU
          URL http://cfa-www.harvard.edu/iau/mpc.html  ISSN 1523-6714

                                   2006 TF1

Observations:
     K06T01F* C2006 10 03.62049 02 44 29.239-24 39 48.32         16.3 V ET029E12
     K06T01F  C2006 10 03.63250 02 44 29.374-24 37 37.23         16.5 V ET029E12
     K06T01F  C2006 10 03.64408 02 44 29.489-24 35 30.78         16.6 V ET029E12
     K06T01F  C2006 10 03.65469 02 44 29.599-24 33 34.62         16.7 V ET029E12
     K06T01F  C2006 10 03.66477 02 44 29.70 -24 31 44.7          16.7 V ET029E12
     K06T01F  C2006 10 03.67466 02 44 29.763-24 29 56.08         16.9 V ET029E12
     K06T01F  C2006 10 03.68451 02 44 29.882-24 28 07.99         16.4 V ET029E12
     K06T01F  C2006 10 03.69436 02 44 29.982-24 26 20.10         16.8 V ET029E12
     K06T01F  C2006 10 03.70537 02 44 30.072-24 24 19.15         16.4 R ET029E12
     K06T01F  C2006 10 03.71620 02 44 30.195-24 22 20.53         16.5 V ET029E12
     K06T01F  C2006 10 03.72686 02 44 30.314-24 20 23.28         16.4 V ET029E12
     K06T01F  C2006 10 03.78362 02 44 31.170-24 09 58.77         16.5 R ET029E12
     K06T01F  C2006 10 03.78546 02 44 31.195-24 09 38.41         16.5 R ET029E12
     K06T01F  C2006 10 04.01308 02 44 48.54 -23 30 44.0                 ET029J95
     K06T01F  C2006 10 04.01751 02 44 48.61 -23 29 56.9                 ET029J95
     K06T01F  C2006 10 04.02272 02 44 48.72 -23 29 01.5          16.6 R ET029J95
     K06T01F 2C2006 10 04.30189 02 45 02.27 -22 39 27.5          15.8 R ET029H06
     K06T01F 2C2006 10 04.30522 02 45 02.32 -22 38 54.2          15.9 R ET029H06
     K06T01F 2C2006 10 04.30880 02 45 02.37 -22 38 17.1          16.1 R ET029H06
     K06T01F  C2006 10 04.31950 02 45 02.94 -22 36 23.1          16.1 R ET029854
     K06T01F  C2006 10 04.32098 02 45 02.94 -22 36 07.9          16.1 R ET029854
     K06T01F  C2006 10 04.32245 02 45 02.96 -22 35 52.8          16.0 R ET029854
     K06T01F  C2006 10 04.51203 02 45 13.772-22 01 10.10         16.7 R ET029E12
     K06T01F  C2006 10 04.51397 02 45 13.787-22 00 50.18         16.7 R ET029E12
     K06T01F  C2006 10 04.52150 02 45 07.90 -22 00 08.8          16.5 V ET029F84
     K06T01F  C2006 10 04.52460 02 45 07.90 -21 59 36.4          16.5 V ET029F84
     K06T01F  C2006 10 04.52767 02 45 07.89 -21 59 04.8          16.4 V ET029F84

Observer details:
854 Sabino Canyon Observatory, Tucson.  Observer J. E. McGaha.  0.36-m f/10.0
    Schmidt-Cassegrain + CCD.
E12 Siding Spring Survey.  Observer R. H. McNaught.  0.5-m Uppsala Schmidt
    + CCD.
F84 Hibiscus Observatory, Punaauia.  Observers N. Teamo, S. F. Hoenig.
    Measurer S. F. Hoenig.  0.35-m f/3.88 Schmidt-Cassegrain + 1392x1040 CCD.
H06 RAS Observatory, Mayhill.  Observer R. Hutsebaut.  0.25-m reflector + CCD.
J95 Great Shefford.  Observer P. Birtwhistle.  0.40-m f/6.0 Schmidt-Cassegrain
    + CCD.

Orbital elements:
2006 TF1                                                 Earth MOID = 0.0703 AU
Epoch 2006 Sept. 22.0 TT = JDT 2454000.5                MPC
M   3.11633              (2000.0)            P               Q
n   0.23907536     Peri.  297.24243     +0.94878461     +0.30961584
a   2.5710637      Node    44.79886     -0.24905642     +0.85536226
e   0.6057148      Incl.    5.11460     -0.19436732     +0.41532329
P   4.12           H   20.3           G   0.15           U   6
Residuals in seconds of arc
061003 E12  0.1-  0.1+    061003 E12  0.0   0.1-    061004 H06  0.5+  0.4-
061003 E12  0.0   0.0     061003 E12  0.0   0.1+    061004 854  0.3-  0.4+
061003 E12  0.0   0.1-    061003 E12  0.1-  0.0     061004 854  0.4-  0.2+
061003 E12  0.1+  0.1+    061003 E12  0.2-  0.1+    061004 854  0.3-  0.0
061003 E12  0.2+  0.3-    061004 J95  0.1+  0.1-    061004 E12  0.3+  0.4-
061003 E12  0.2-  0.0     061004 J95  0.1-  0.1-    061004 E12  0.0   0.2-
061003 E12  0.1+  0.2+    061004 J95  0.0   0.0     061004 F84  0.0   0.0
061003 E12  0.2+  0.1+    061004 H06  0.1-  1.1+    061004 F84  0.1+  0.2+
061003 E12  0.1-  0.2+    061004 H06  0.2+  0.3-    061004 F84  0.1-  0.1-

Ephemeris:
2006 TF1                 a,e,i = 2.57, 0.61, 5                   q = 1.0137
Date    TT    R. A. (2000) Decl.     Delta      r     Elong.  Phase     V
2006 10 02    02 42.83   -29 52.3    0.0801   1.058   134.3    42.6    16.6
2006 10 12    02 47.24   -05 23.8    0.117    1.103   152.2    25.0    17.0
2006 10 22    02 44.74   +06 32.3    0.168    1.158   164.7    13.1    17.5
2006 11 01    02 40.73   +12 45.4    0.231    1.223   175.6     3.6    17.9
2006 11 11    02 37.80   +16 15.3    0.306    1.295   173.7     4.8    18.7
2006 11 21    02 37.11   +18 21.2    0.393    1.370   164.0    11.5    19.7
2006 12 01    02 39.26   +19 44.2    0.495    1.449   154.7    16.9    20.5
2006 12 11    02 44.21   +20 45.6    0.611    1.530   146.0    21.1    21.2
2006 12 21    02 51.61   +21 36.4    0.741    1.611   137.8    24.2    21.8

Timothy B. Spahr             (C) Copyright 2006 MPC           M.P.E.C. 2006-T29

Read MPEC 2006-T28 Read MPEC 2006-T30


Our Web policy. Index to the CBAT/MPC/ICQ pages.


Valid HTML 4.01!